Vorticity
nan nan nan nan nan nan nan nan nan nan nan nan nan nan nan nan nan nan nan nan nan nan nan nan nan nan nan nan nan nan nan nan nan nan nan nan nan nan nan nan nan nan nan nan nan
nan 6 7 7 7 7 7 7 7 7 8 10 9 9 8 11 12 7 15 18 14 4 2 4 5 4 4 7 6 8 8 8 7 6 13 11 4 3 7 3 1 6 14 14 nan
nan 7 7 7 7 7 7 8 7 7 8 10 10 10 9 10 10 17 21 12 4 1 5 6 5 4 6 7 8 6 4 6 8 14 15 9 5 4 7 7 7 10 9 5 nan
nan 7 7 7 7 7 8 8 8 7 9 10 11 10 11 7 5 19 19 7 3 6 3 4 5 5 6 8 8 7 8 4 8 17 13 9 4 7 1 9 18 16 9 4 nan
nan 7 7 7 7 8 9 8 8 8 9 11 11 11 10 6 10 17 13 4 3 6 3 3 5 5 6 10 8 6 6 9 14 10 8 8 4 7 6 8 18 13 7 4 nan
nan 7 8 7 7 8 9 8 8 9 10 11 11 9 7 6 17 17 9 3 0 3 6 2 3 7 8 8 7 7 6 10 17 10 9 6 6 6 11 9 11 7 5 4 nan
nan 8 8 7 7 8 9 8 10 13 14 14 11 8 5 10 14 14 5 7 4 2 4 3 5 4 8 9 9 10 11 11 13 10 6 5 5 8 12 9 6 4 5 6 nan
nan 7 7 7 8 9 8 10 16 20 20 16 9 6 4 14 13 7 2 9 7 1 4 6 8 9 6 8 11 12 8 7 11 5 8 1 6 18 10 8 5 5 5 6 nan
nan 7 8 8 9 9 8 14 20 20 17 8 4 6 13 10 11 10 5 9 7 6 6 6 6 10 8 8 10 2 3 9 13 11 5 3 3 19 12 6 6 6 5 6 nan
nan 8 8 9 9 9 19 20 14 12 8 4 7 8 8 8 13 8 13 8 5 8 6 10 6 5 3 3 1 1 8 9 10 16 7 3 2 10 12 7 6 5 6 6 nan
nan 9 8 9 9 12 22 19 12 9 5 7 4 5 4 11 8 7 11 3 5 4 9 8 4 1 7 9 5 8 6 6 15 17 11 8 8 8 8 4 6 7 8 7 nan
nan 8 9 10 9 20 17 12 9 5 9 11 6 7 8 5 6 11 11 7 5 7 5 3 5 9 11 7 6 5 6 13 16 17 12 10 16 15 13 8 6 5 5 7 nan
nan 10 11 9 21 20 13 6 5 10 8 10 14 13 17 13 5 10 7 4 9 9 4 -1 8 8 4 6 9 5 10 10 11 12 11 8 19 17 10 11 9 6 7 8 nan
nan 12 10 21 24 11 10 1 12 9 7 10 10 11 11 8 12 18 8 3 5 6 9 4 9 5 7 9 7 5 15 9 9 11 11 12 11 18 19 13 9 8 7 7 nan
nan 15 17 20 14 8 2 9 14 9 2 9 12 8 10 6 10 12 11 11 9 7 4 5 10 11 8 11 7 7 6 12 16 13 11 10 6 8 15 19 16 11 7 7 nan
nan 19 20 13 7 3 6 16 9 8 6 9 7 8 11 11 7 11 13 6 12 11 2 9 9 11 10 12 8 9 10 10 8 9 9 9 10 7 7 8 15 18 12 9 nan
nan 27 12 3 4 6 15 14 10 7 4 8 9 9 12 9 11 13 18 14 10 12 9 8 2 10 10 6 6 4 7 9 9 5 6 12 10 6 9 9 5 17 21 11 nan
nan 19 6 5 6 12 14 10 9 7 7 6 7 11 7 10 10 10 15 10 10 14 14 13 9 9 7 6 6 10 7 7 6 7 11 13 5 6 11 11 14 18 21 17 nan
nan 9 5 8 14 12 11 9 9 7 5 8 11 11 6 9 9 10 8 8 5 13 13 13 10 13 9 11 16 11 10 8 12 9 8 6 9 7 6 5 13 20 23 17 nan
nan 8 2 10 16 12 11 10 7 6 9 12 10 7 7 7 9 11 8 7 10 9 13 11 12 10 10 13 12 11 11 9 10 8 8 5 5 8 1 8 10 17 22 16 nan
nan 7 3 13 16 9 10 8 8 8 11 12 11 9 8 8 8 7 8 7 7 9 14 11 13 8 8 10 7 12 6 7 7 11 11 8 8 11 3 6 7 11 20 18 nan
nan 5 6 11 14 9 6 6 10 10 11 13 10 10 10 10 11 11 7 2 8 14 10 10 13 8 8 10 12 10 11 13 14 10 7 11 10 9 11 8 7 5 17 23 nan
nan 7 9 15 9 9 9 10 6 9 11 10 10 11 11 10 11 10 10 5 6 13 11 10 10 8 12 6 9 8 8 7 9 13 12 6 10 3 3 6 7 8 10 19 nan
nan 10 9 12 10 8 9 10 7 11 9 6 11 12 11 11 10 9 10 3 5 11 14 11 5 8 2 1 8 6 3 2 4 6 8 4 2 -4 0 3 6 9 8 14 nan
nan 12 8 6 8 10 11 9 8 8 8 12 9 6 10 9 7 8 7 8 10 12 8 12 10 13 10 7 1 1 2 8 8 3 2 4 1 2 4 8 7 8 7 8 nan
nan 9 10 11 7 8 12 10 9 9 9 8 5 2 8 9 8 6 6 6 3 6 8 10 12 11 7 9 8 8 9 8 7 8 7 6 2 12 7 7 7 6 9 10 nan
nan nan nan nan nan nan nan nan nan nan nan nan nan nan nan nan nan nan nan nan nan nan nan nan nan nan nan nan nan nan nan nan nan nan nan nan nan nan nan nan nan nan nan nan nan
CAPE
1 1 0 0 0 0 0 0 0 0 0 0 0 0 0 0 0 0 0 0 0 1080 1464 1221 49 203 241 385 347 461 622 425 258 292 388 311 323 280 237 439 343 469 405 358 584
1 0 0 0 0 0 0 0 0 0 0 0 0 0 0 0 0 0 0 0 708 1844 1035 243 60 41 142 398 871 607 560 316 212 103 310 384 360 262 320 401 468 627 414 501 516
1 0 0 0 0 0 0 0 0 0 0 0 0 0 0 0 0 0 45 1153 1382 915 920 320 243 231 142 289 485 888 547 603 477 144 334 386 291 219 315 361 419 575 499 541 510
1 0 0 0 0 0 0 0 0 0 0 0 0 0 0 0 0 2 917 1808 1523 537 483 242 176 144 184 253 382 683 734 820 750 253 349 387 326 210 254 299 216 507 483 561 574
0 0 0 0 0 0 0 0 0 0 0 0 0 0 0 0 0 482 1406 1834 250 458 452 78 195 236 609 304 446 627 398 347 559 193 316 354 326 278 207 260 345 622 564 612 651
0 0 0 0 0 0 0 0 0 0 0 0 0 0 0 0 26 301 421 336 394 41 70 175 268 323 501 448 416 207 300 136 178 200 366 374 321 230 183 383 525 638 641 696 714
0 0 1 1 0 0 0 0 0 0 0 0 0 0 0 0 73 129 81 277 276 13 47 29 51 532 745 866 190 110 124 102 244 290 392 415 419 362 331 421 547 546 684 728 738
1 1 1 0 0 0 1 1 0 0 0 0 0 0 0 0 89 0 82 372 315 133 145 472 617 687 800 645 120 50 77 168 156 349 287 250 347 469 413 449 519 508 618 691 749
4 2 1 1 1 2 1 0 0 0 0 0 0 0 0 0 5 12 0 30 397 434 446 570 513 436 334 207 203 109 78 85 71 302 312 308 254 151 383 434 473 530 557 603 721
6 5 4 4 4 2 0 0 0 0 0 0 0 0 0 0 0 15 0 58 59 341 247 241 305 370 156 190 126 72 63 35 59 159 283 347 253 220 291 353 433 525 478 559 639
6 6 5 4 3 1 0 0 0 0 0 0 0 0 0 0 0 0 0 37 87 162 361 345 213 34 13 71 84 47 44 19 11 8 179 278 219 212 307 268 334 377 390 417 481
7 6 3 4 2 0 0 0 0 0 0 0 0 0 0 0 0 0 0 0 1 50 18 12 12 0 0 3 0 0 0 0 0 18 109 190 322 251 276 322 302 273 269 234 225
2 1 0 2 0 0 0 0 0 0 0 0 0 0 0 0 0 0 0 24 80 78 9 0 0 0 0 0 0 0 0 0 0 51 53 26 160 153 143 261 297 250 213 151 172
2 0 0 1 0 0 0 0 0 0 0 0 0 0 0 0 0 0 0 0 0 0 0 0 0 0 0 0 0 0 0 0 0 1 0 29 131 204 187 250 234 249 186 128 121
3 0 0 0 0 0 0 0 0 0 0 0 0 0 0 0 0 0 0 0 0 0 0 0 0 0 0 0 0 0 0 0 0 0 8 37 132 307 33 207 312 289 236 187 168
3 2 0 0 0 0 0 0 0 0 0 0 0 0 0 0 0 0 0 0 0 0 0 0 0 0 0 0 0 0 0 0 0 0 20 0 61 46 124 314 286 288 307 271 190
0 0 0 0 0 0 0 0 0 0 0 0 0 0 0 0 0 0 0 0 0 0 0 0 0 0 0 0 0 0 0 0 0 0 0 0 0 21 8 3 28 46 294 330 286
0 0 0 0 0 0 0 0 0 0 0 0 0 0 0 0 0 0 0 0 0 0 0 0 0 0 0 0 0 0 0 0 0 0 0 0 0 0 0 0 0 0 51 287 326
0 0 0 0 0 0 0 0 0 0 0 0 0 0 0 0 0 0 0 0 0 0 0 0 0 0 0 0 0 0 0 0 0 0 0 0 0 0 0 0 0 0 3 167 298
0 0 0 0 0 0 0 0 0 0 0 0 0 0 0 0 0 0 0 0 0 0 0 0 0 0 0 0 0 0 0 0 0 0 0 0 0 0 2 0 0 0 27 88 157
0 0 0 0 0 0 0 0 0 0 0 0 0 0 0 0 0 0 0 0 0 0 0 0 0 0 0 0 0 0 0 0 0 0 0 0 0 0 0 0 0 0 1 103 104
0 0 0 0 0 0 0 0 0 0 0 0 0 0 0 0 0 0 0 0 0 0 0 0 0 0 0 0 0 0 0 0 0 0 0 0 0 0 0 0 0 0 0 0 176
0 0 0 0 0 0 0 0 0 0 0 0 0 0 0 0 0 0 0 0 0 0 0 0 0 0 0 0 0 0 0 0 0 0 0 0 0 0 0 0 0 0 0 0 0
0 0 0 0 0 0 0 0 0 0 0 0 0 0 0 0 0 0 0 0 0 0 0 0 0 0 0 0 0 0 0 0 0 0 0 0 0 0 0 0 0 0 0 0 0
0 0 0 0 0 0 0 0 0 0 0 0 0 0 0 0 0 0 0 0 0 0 0 0 0 0 0 0 0 0 0 0 0 0 0 0 0 0 0 0 0 0 0 0 0
0 0 0 0 0 0 0 0 0 0 0 0 0 0 0 0 0 0 0 0 0 0 0 0 0 0 0 0 0 0 0 0 0 0 0 0 0 0 0 0 0 0 0 3 0
0 0 0 0 0 0 0 0 0 0 0 0 0 0 0 0 0 0 0 0 0 0 0 0 0 0 0 0 0 0 0 0 0 0 0 0 0 0 0 0 0 0 1 0 0